Timeline UpdatesTrip UpdatesNews PostsPvt PostsTravel TipsAdmin PostsConv PostsFollowed PostsChat RequestsBlog PostsPNR Posts

Disclaimer
Search
 
 
Thu Sep 18, 2014 01:08:33 ISTHomeTrainsΣChainsAtlasPNRForumGalleryNewsFAQTripsMembersLoginFeedback
No Recent News for this Train
Other Trains in the News **new
Latest...
..
Mon Feb 24, 2014 (09:24PM)
⇐ Return Journey: Train# 13201

13202/Mumbai LTT - Rajendra Nagar Patna Express

Time-Table HAS CHANGED.
Yesterday (11:14PM)
Change Departure Station:
Change Arrival Station:
Post a Train Travel TipPost a Train Travel Tip **new
Post a Comment/Question/Picture/VideoPost a Comment/Question/Picture/Video
Inaugural Run
Thu Jan 01, 1998
Pantry/Catering
✓ Pantry Car Avbl
✓ Catering Avbl
RSA - Rake Sharing
NO RSA
Rake/Coach Composition
LOCO-SLR-GS-GS-A1-AB1-B2-B1-PC-S12-S11-S10-S9-S8-S7-S6-S5-S4-S3-S2-S1-GS-GS-GS-SLR
Loco
LTT-ET:-ET/BSL WAP-4 ET-COI :-ET WDP 4B COI-RJPB :-MGS WAP 4/CNB WAG 7
News    PNR    Forum    Time-Table    Availability    Fare Chart    Map    Arr/Dep History    Trips    Gallery    ΣChains    X/O    Timeline    
Travel Time: 35h 40m    61 halts    Distance: 1695 km    Avg Speed: 47 km/hr
Type: Mail/Express
Zone: ECR/East Central
Departs @ 22:15
Platform# 5
SMTWTFS
Mumbai Lokmanya Tilak Terminus/LTT 
Arrives @ 09:55 +2 nights
Platform# ???
SMTWTFS
Rajendra Nagar Bihar/RJPB 

61 halts. 242 intermediate Stations between Mumbai Lokmanya Tilak Terminus and Rajendra Nagar Bihar

Show ALL intermediate Stations  Show Old Time-Table

#CodeStation NameX/OArrivesAvgDepartsAvgHaltPFDay#KmSpeedElevZoneAddress
1LTTMumbai Lokmanya Tilak Terminus (5)»  -22:15-510.0477mCRMumbai - 400089, Maharashtra
2KYNKalyan Junction (8)X  22:55 23:02-23:00 23:05-5 3m4136.74910mCRKalyan 421301, Maharashtra
3IGPIgatpuri (4)X  00:45-00:50-5m--2118.563589mCRIgatpuri 422403, Maharashtra
4DVLDevlali (3)X  01:33-01:35-2m12163.434561mCRDist. Nashik 422401, Maharashtra
5NKNasik Road (3)X  01:45-01:50-5m22169.167563mCRNashik 422101, Maharashtra
6NRNiphad (3)X  02:18-02:20-2m--2200.678550mCRNashik, Maharashtra
7LSLasalgaon (3)X  02:33-02:35-2m--2217.474592mCRLasalgaon, Maharashtra
8MMRManmad Junction (6)  03:00 02:55-03:05 03:00-5m22241.985580mCRManmad 423104, Maharashtra
9NGNNandgaon (3)X  03:22 03:18-03:25 03:20-3 2m--2267.390476mCRNandgaon, Maharashtra
10CSNChalisgaon Junction (3)X  03:53 03:48-03:55 03:50-2m--2309.496352mCRChalisgaon 424101, Maharashtra
11JLJalgaon Junction (4)X  04:53 04:48-04:55 04:50-2m32402.058213mCRJalgaon 425001, Maharashtra
12BSLBhusaval Junction (8)X  05:20 05:15-05:30 05:25-10m52426.173208mCRBhusaval 425201, Maharashtra
13RVRaver (2)  06:03 05:53-06:05 05:55-2m--2460.481242mCRJalgaon, Maharashtra
14BAUBurhanpur (2)  06:23 06:10-06:25 06:12-2m22480.675269mCRBurhanpur, Madhya Pradesh
15NPNRNepanagar (2)O  06:53 06:33-06:55 06:35-2m--2506.830289mCRState Highway 27, Madhya Pradesh
16KNWKhandwa Junction (5)XO  08:10 08:00-08:15 08:05-5m--2549.541310mCRKhandwa, Madhya Pradesh
17TLVTalvadiya (2)  08:28-08:30-2m--2565.299308mWCRKhandwa, Madhya Pradesh
18CAERChhanera (2)X  08:48-08:50-2m--2594.980283mWCRChhanera, Madhya Pradesh
19KKNKhirkiya (2)X  09:13-09:15-2m22625.690281mWCRSH 15, Madhya Pradesh
20HDHarda (3)X  09:36-09:38-2m--2657.171289mWCRHarda, Madhya Pradesh
21TBNTimarni (2)XO  09:48 09:50-09:50 09:52-2m--2671.253308mWCRTimarni, Madhya Pradesh
22BPFBanapura (2)  10:24-10:26-2m--2699.431314mWCRBanapura, Madhya Pradesh
23ETItarsi Junction (7)X11:30-11:40-10m--2732.972329mWCRItarsi 461111, Madhya Pradesh
24BGTABagratawa (2)XO  12:02-12:04-2m22759.336338mWCRBagra Tawa, Madhya Pradesh
25SGPSohagpur (2)  12:43-12:45-2m22782.462340mWCRSohagpur, Madhya Pradesh
26PPIPipariya (3)  13:02-13:04-2m12800.183338mWCRPiparia, Madhya Pradesh
27BKHBankhedi (2)X  13:18-13:20-2m22819.574351mWCRBankheri, Madhya Pradesh
28SCKRSalichauka Road (2)X  13:31 13:33-13:33 13:35-2m--2835.693355mWCRGadarwara, Madhya Pradesh
29GARGadarwara (2)XO  13:44-13:46-2m12849.586352mWCRNarsinghpur, Madhya Pradesh
30KYKareli (2)  14:06-14:08-2m12878.048361mWCRKareli, Madhya Pradesh
31NUNarsinghpur (2)X  14:28-14:30-2m12893.878365mWCRNarsimhapur, Madhya Pradesh
32SRIDShridham (3)  14:54-14:56-2m22925.078373mWCRShridham, Madhya Pradesh
33MMLMadan Mahal (3)  15:34-15:36-2m22974.610428mWCRJabalpur, Madhya Pradesh
34JBPJabalpur Junction (4)X  15:45 15:55-15:55 16:05-10m32977.983416mWCRJabalpur, Madhya Pradesh
35SHRSihora Road (2)X  16:27 16:33-16:29 16:35-2m--21016.563388mWCRJabalpur, Madhya Pradesh
36KTEKatni Junction (6)X  17:10 17:25-17:15 17:30-5m--21068.7130387mWCRKatni, Madhya Pradesh
37JKEJukehi (3)  17:30 17:38-17:32 17:40-2m--21086.198402mWCRJukehi, Madhya Pradesh
38MYRMaihar (3)  18:03 18:08-18:05 18:10-2m--21131.743353mWCRMaihar Railway Station, Madhya Pradesh
39STASatna Junction (3)X  18:50 19:00-19:00 19:10-10m221167.193322mWCRSatna, Madhya Pradesh
40JTWJaitwar (2)  19:17 19:23-19:19 19:25-2m--21187.273321mWCRJaitwar, Madhya Pradesh
41MJGMajhagawanX  19:42-19:44-2m--21207.927343mWCRMajhgawa, Madhya Pradesh
42MKPManikpur Junction (4)X  21:15 21:05-21:20 21:10-5m--21244.875250mNCRManikpur, Uttar Pradesh
43DBRDabhaura (2)X  21:38 21:28-21:40 21:30-2m--21267.372201mNCRDabhaura, Uttar Pradesh
44SRJShankargarh (3)  22:07 21:57-22:09 21:59-2m--21299.832132mNCRShankargarh, Uttar Pradesh
45COIChheoki Junction (3)O  23:10-23:30-20m--21337.12596mNCRDist.-Allahabad, Uttar Pradesh
46MNFManda RoadX  01:20-01:22-2m--31382.77593mNCRNH 76, Uttar Pradesh
47BDLVindhyachal (3)X  01:44-01:46-2m231410.22688mNCRMirzapur, Uttar Pradesh
48MZPMirzapur (3)X  02:03-02:05-2m--31417.56388mNCRMirzapur, Uttar Pradesh
49CARChunar Junction (5)XO  02:38 02:35-02:40-2 5m331448.83085mNCRChunar Junction, Uttar Pradesh
50ARWAhraura Road (4)X  03:16-03:18-2m--31466.82285mNCRDist. Mirzapur - 231305, Uttar Pradesh
51MGSMughal Sarai Junction (8)X  03:55-04:10-15m--31480.66583mECRMughalsarai 232101, Uttar Pradesh
52ZNAZamania (2)O  04:46 04:51-04:48 04:53-2m--31524.86777mECRGhazipur, Uttar Pradesh
53DLNDildarnagar Junction (2)X  05:01 05:05-05:03 05:07-2m--31538.38072mECRDildarnagar, Uttar Pradesh
54GMRGahmar (2)X  05:12 05:19-05:14 05:20-2 1m--31554.36968mECRDistt: Ghazipur, Uttar Pradesh
55CSAChausa (2)  05:21 05:28-05:23 05:29-2 1m--31563.56068mECRState Highway 14, Bihar
56BXRBuxar (3)X  05:35 05:40-05:37 05:42-2m--31574.53367mECRBuxar, Bihar
57BEABihiya (3)  07:07-07:09-2m--31621.62967mECRBehea, Bihar
58ARAAra Junction (3)  07:53-07:55-2m--31643.03463mECRarrah( 06182-233411), Bihar
59BTABihta (2)X  08:34-08:36-2m--31665.24262mECRDistt: Patna, Bihar
60SDESadisopur (2)  08:42-08:44-2m--31669.44164mECRSadisopur, Bihar
61DNRDanapur (5)X09:03-09:05-2m--31682.52358mECRKhagaul, Bihar
62PNBEPatna Junction (10)  09:30-09:40-10m331691.91057mECRPatna 800001, Bihar
63RJPBRajendra Nagar Bihar (4)•  09:55----31694.5-55mECRPatna 800001, Bihar
Scroll to Top
Scroll to Bottom